Torna al catalogo

CZ-6A DEB

AttivoSSO
NORAD 54299·DEBRIS·🇨🇳 China

Lanciato Nov 11, 2022 da Taiyuan Satellite Launch Center

Loading…

Prossimi Passaggi (prossime 24 ore)

TLE

AggiornatoSource: Space-Track

Epoca: Sep 14, 2026, 05:10 UTC

1 54299U 22151AS  26257.21593020  .00000120  00000-0  95182-4 0  9996
2 54299  98.8626 251.2667 0055399  99.0658 261.6786 14.07650295196659

Traccia CZ-6A DEB in tempo reale con AllMySat

Download on the App Store